This is the latest recevied weather packets stored in our database for station/object K7DC. If no packets are shown the sender has not sent any weather packets the latest 10 day(s).
| Time | Temp. | Humidity | Pressure | Rain* | Wind** | Luminosity | Snow |
|---|---|---|---|---|---|---|---|
| 1787868814 | 44.44° C | 19% | 1012.8 hPa | 0 mm | - | 603 W/m² | - |
| 1787868512 | 45° C | 18% | 1013 hPa | 0 mm | - | 623 W/m² | - |
| 1787868211 | 45° C | 18% | 1013.1 hPa | 0 mm | - | 640 W/m² | - |
| 1787867909 | 45° C | 19% | 1013.1 hPa | 0 mm | - | 654 W/m² | - |
| 1787867603 | 44.44° C | 19% | 1013.2 hPa | 0 mm | - | 668 W/m² | - |
| 1787867302 | 44.44° C | 20% | 1013.4 hPa | 0 mm | - | 687 W/m² | - |
| 1787867006 | 43.89° C | 20% | 1013.4 hPa | 0 mm | - | 704 W/m² | - |
| 1787866694 | 43.89° C | 20% | 1013.4 hPa | 0 mm | - | 715 W/m² | - |
| 1787866392 | 43.89° C | 20% | 1013.3 hPa | 0 mm | - | 728 W/m² | - |
| 1787866087 | 43.89° C | 20% | 1013.5 hPa | 0 mm | - | 743 W/m² | - |
| 1787865782 | 44.44° C | 19% | 1013.5 hPa | 0 mm | - | 755 W/m² | - |
| 1787865477 | 44.44° C | 20% | 1013.8 hPa | 0 mm | - | 769 W/m² | - |
| 1787865172 | 43.89° C | 20% | 1014.2 hPa | 0 mm | - | 783 W/m² | - |
| 1787864869 | 43.33° C | 20% | 1014.1 hPa | 0 mm | - | 798 W/m² | - |
| 1787864568 | 42.78° C | 21% | 1014.1 hPa | 0 mm | - | 810 W/m² | - |
| 1787864263 | 43.33° C | 20% | 1014.4 hPa | 0 mm | - | 819 W/m² | - |
| 1787863958 | 42.78° C | 21% | 1014.6 hPa | 0 mm | - | 780 W/m² | - |
| 1787863656 | 42.78° C | 21% | 1014.5 hPa | 0 mm | - | 758 W/m² | - |
| 1787863355 | 42.78° C | 21% | 1014.8 hPa | 0 mm | - | 534 W/m² | - |
| 1787863052 | 42.78° C | 20% | 1014.6 hPa | 0 mm | - | 536 W/m² | - |
| 1787862752 | 42.78° C | 21% | 1014.8 hPa | 0 mm | - | 703 W/m² | - |
| 1787862452 | 42.22° C | 22% | 1014.6 hPa | 0 mm | - | 858 W/m² | - |
| 1787862147 | 41.67° C | 22% | 1015.2 hPa | 0 mm | - | 871 W/m² | - |
| 1787861842 | 41.67° C | 22% | 1015 hPa | 0 mm | - | 874 W/m² | - |
| 1787861542 | 42.78° C | 21% | 1015.2 hPa | 0 mm | - | 878 W/m² | - |
* Rain latest hour (hover to see other rain measurements)
** Current wind speed in m/s (hover to see current wind gust speed)